Flag for Germany Weather past 2 weeks in Ellwangen (Jagst), Baden-Württemberg, Germany

Now
31 °F

Light snow. Low clouds.


Feels Like: 20 °F
Forecast: 32 / 42 °F
Wind: 14 mph from West

Location: Stoetten

Current Time: Apr 1, 2015 at 6:45:04 AM

Latest Report: Apr 1, 2015 at 6:00 AM


Visibility: 11 mi

Pressure: 30.01 "Hg

Humidity: 98%

Dew point: 30 °F

Location of Ellwangen (Jagst)Location

Historic Weather in Ellwangen (Jagst) — Graph

°F

Ellwangen (Jagst) temperature yesterday

Maximum temperature yesterday: 51 °F (at 9:00 AM)
Minimum temperature yesterday: 36 °F (at 10:00 PM)
Average temperature yesterday: 43 °F

Past Weeks' High & Low Weather Summary

 TemperatureHumidityPressure
High59 °F (Mar 25, 2:00 PM)100% (Mar 26, 3:00 AM)30.29 "Hg (Mar 26, 3:00 AM)
Low29 °F (Apr 1, 4:00 AM)31% (Mar 25, 3:00 PM)29.50 "Hg (Mar 31, 9:00 AM)
Average42 °F73%29.98 "Hg
* Reported Mar 17 4:00 AM — Apr 1 5:00 AM, Ellwangen (Jagst), Weather by CustomWeather, © 2015

Note: Actual official high and low records may vary slightly from our data, if they occured in-between our weather recording intervals... More about our weather records

Advertising

Ellwangen (Jagst) weather history for previous 24 hours

 ConditionsComfort  
Time TempWeatherWind HumidityBarometerVisibility
5:00 AM
Wed, Apr 1
30 °FLight snow. Low clouds.12 mph96%30.02 "Hg17 mi
4:00 AM29 °FLow clouds.12 mph100%30.01 "Hg22 mi
3:00 AM31 °FSnow. Low clouds.10 mph99%29.98 "Hg0 mi
2:00 AM37 °FOvercast.17 mph77%29.93 "Hg28 mi
1:00 AM36 °FOvercast.13 mph91%29.93 "Hg19 mi
12:00 AM35 °FLow clouds.12 mph97%29.93 "Hg15 mi
11:00 PM
Tue, Mar 31
36 °FOvercast.14 mph88%29.92 "Hg40 mi
10:00 PM36 °FOvercast.13 mph91%29.93 "Hg25 mi
9:00 PM37 °FOvercast.15 mph79%29.92 "Hg47 mi
8:00 PM37 °FPassing clouds.15 mph89%29.89 "Hg47 mi
7:00 PM37 °FSprinkles. Low clouds.15 mph92%29.85 "Hg37 mi
6:00 PM44 °FPartly sunny.20 mph73%29.75 "Hg37 mi
5:00 PM42 °FSprinkles. Overcast.22 mph82%29.73 "Hg34 mi
4:00 PM43 °FSprinkles. Overcast.17 mph93%29.69 "Hg7 mi
3:00 PM46 °FSprinkles. Overcast.23 mph79%29.63 "Hg7 mi
2:00 PM46 °FSprinkles. Overcast.22 mph83%29.64 "Hg47 mi
1:00 PM49 °FOvercast.24 mph71%29.57 "Hg28 mi
12:00 PM49 °FOvercast.23 mph82%29.57 "Hg19 mi
11:00 AM47 °FLight rain. Overcast.25 mph85%29.57 "Hg7 mi
10:00 AM48 °FLight rain. Overcast.26 mph83%29.55 "Hg7 mi
9:00 AM51 °FOvercast.24 mph66%29.50 "Hg47 mi
8:00 AM51 °FOvercast.22 mph74%29.54 "Hg47 mi
7:00 AM50 °FOvercast.23 mph76%29.55 "Hg47 mi
6:00 AM47 °FOvercast.13 mph85%29.61 "Hg47 mi
Weather by CustomWeather, © 2015

See weather overviewHow to use our weather pages